| time (UTC) | temp F | wind direction | speed MPH | gust MPH | rain 1hr in | rain 24hr in | rain mn in | humidity % | barometer mb |
| 20260508062438 | 43 | 292 | 0.0 | 0.0 | 0.00 | 0.21 | 0.00 | 85 | 1025.7 |
| 20260508055538 | 43 | 292 | 0.0 | 0.0 | 0.00 | 0.22 | 0.00 | 85 | 1025.3 |
| 20260508054636 | 43 | 292 | 0.0 | 0.0 | 0.00 | 0.22 | 0.00 | 84 | 1025.4 |
| 20260508053638 | 44 | 292 | 0.0 | 0.0 | 0.00 | 0.22 | 0.00 | 85 | 1025.5 |
| 20260508052638 | 44 | 292 | 0.0 | 0.0 | 0.00 | 0.22 | 0.00 | 86 | 1025.6 |
| 20260508051737 | 44 | 292 | 0.0 | 0.0 | 0.00 | 0.22 | 0.00 | 86 | 1025.4 |
| 20260508050836 | 44 | 292 | 0.0 | 0.0 | 0.00 | 0.22 | 0.00 | 86 | 1025.5 |
| 20260508045838 | 44 | 292 | 0.0 | 0.0 | 0.00 | 0.22 | 0.00 | 86 | 1025.4 |
| 20260508044937 | 45 | 292 | 0.0 | 0.0 | 0.00 | 0.22 | 0.00 | 86 | 1025.4 |
| 20260508043936 | 45 | 292 | 0.0 | 0.0 | 0.00 | 0.22 | 0.00 | 86 | 1025.4 |
| 20260508043035 | 45 | 292 | 0.0 | 0.0 | 0.00 | 0.22 | 0.00 | 87 | 1025.6 |
| 20260508042036 | 45 | 292 | 0.0 | 0.0 | 0.00 | 0.22 | 0.00 | 86 | 1025.6 |
| 20260508035216 | 45 | 292 | 0.0 | 0.0 | 0.00 | 0.22 | 0.22 | 83 | 1025.5 |
| 20260508034215 | 45 | 292 | 0.0 | 0.0 | 0.00 | 0.22 | 0.22 | 82 | 1025.6 |
| 20260508032218 | 46 | 292 | 0.0 | 0.0 | 0.00 | 0.22 | 0.22 | 81 | 1025.6 |
| 20260508025215 | 48 | 292 | 0.0 | 0.0 | 0.00 | 0.28 | 0.22 | 78 | 1025.5 |
| 20260508023217 | 48 | 292 | 0.0 | 0.0 | 0.00 | 0.30 | 0.22 | 76 | 1025.5 |
| 20260508022216 | 49 | 292 | 0.0 | 0.0 | 0.00 | 0.30 | 0.22 | 75 | 1025.5 |
| 20260508021216 | 49 | 292 | 0.0 | 0.0 | 0.00 | 0.30 | 0.22 | 75 | 1025.4 |
| 20260508014214 | 50 | 292 | 0.0 | 0.0 | 0.00 | 0.30 | 0.22 | 71 | 1025.5 |
| 20260508013215 | 50 | 292 | 0.0 | 0.0 | 0.00 | 0.30 | 0.22 | 70 | 1025.4 |
| 20260508012315 | 51 | 292 | 0.0 | 0.0 | 0.00 | 0.30 | 0.22 | 69 | 1025.3 |
| 20260508011316 | 51 | 292 | 0.0 | 0.0 | 0.00 | 0.30 | 0.22 | 67 | 1025.2 |
| 20260508010316 | 51 | 292 | 0.0 | 0.0 | 0.00 | 0.30 | 0.22 | 65 | 1025.3 |
| 20260508010217 | 51 | 292 | 0.0 | 0.0 | 0.00 | 0.30 | 0.22 | 65 | 1025.3 |
| 20260508005315 | 52 | 292 | 0.0 | 0.0 | 0.00 | 0.30 | 0.22 | 62 | 1025.0 |
| 20260508004316 | 52 | 292 | 0.0 | 0.0 | 0.00 | 0.30 | 0.22 | 59 | 1024.9 |
| 20260508003414 | 53 | 292 | 0.0 | 0.0 | 0.00 | 0.30 | 0.22 | 56 | 1024.7 |
| 20260508000416 | 56 | 292 | 0.0 | 0.0 | 0.00 | 0.30 | 0.22 | 50 | 1024.4 |
| 20260507235414 | 57 | 292 | 0.0 | 0.0 | 0.00 | 0.30 | 0.22 | 47 | 1024.1 |
| 20260507234415 | 58 | 292 | 0.0 | 0.0 | 0.00 | 0.30 | 0.22 | 45 | 1024.1 |
| 20260507234317 | 58 | 292 | 0.0 | 0.0 | 0.00 | 0.30 | 0.22 | 45 | 1024.2 |
| 20260507233316 | 58 | 292 | 0.0 | 1.0 | 0.00 | 0.30 | 0.22 | 43 | 1024.1 |
| 20260507232318 | 59 | 292 | 1.0 | 2.0 | 0.00 | 0.30 | 0.22 | 43 | 1024.0 |
| 20260507231315 | 59 | 292 | 1.0 | 2.0 | 0.00 | 0.30 | 0.22 | 41 | 1023.6 |
| 20260507230316 | 60 | 337 | 2.0 | 3.0 | 0.00 | 0.30 | 0.22 | 41 | 1023.7 |
| 20260507225317 | 60 | 337 | 1.0 | 1.0 | 0.00 | 0.30 | 0.22 | 40 | 1023.8 |
| 20260507224415 | 60 | 312 | 2.0 | 4.0 | 0.00 | 0.30 | 0.22 | 39 | 1023.7 |
| 20260507223417 | 60 | 270 | 0.0 | 1.0 | 0.00 | 0.30 | 0.22 | 37 | 1023.5 |
| 20260507221517 | 61 | 337 | 0.0 | 2.0 | 0.00 | 0.30 | 0.22 | 36 | 1023.5 |
| 20260507220516 | 61 | 306 | 2.0 | 3.0 | 0.00 | 0.30 | 0.22 | 36 | 1023.7 |
| 20260507215518 | 61 | 252 | 1.0 | 2.0 | 0.00 | 0.30 | 0.22 | 36 | 1023.6 |
| 20260507214615 | 61 | 294 | 4.0 | 5.0 | 0.00 | 0.30 | 0.22 | 36 | 1023.5 |
| 20260507213615 | 61 | 337 | 1.0 | 2.0 | 0.00 | 0.30 | 0.22 | 36 | 1023.6 |
| 20260507212714 | 61 | 252 | 1.0 | 3.0 | 0.00 | 0.30 | 0.22 | 36 | 1023.5 |
| 20260507211714 | 61 | 337 | 2.0 | 4.0 | 0.00 | 0.30 | 0.22 | 36 | 1023.4 |
| 20260507210716 | 61 | 337 | 0.0 | 3.0 | 0.00 | 0.30 | 0.22 | 36 | 1023.4 |
| 20260507205716 | 61 | 310 | 3.0 | 5.0 | 0.00 | 0.30 | 0.22 | 35 | 1023.4 |
| 20260507204715 | 61 | 344 | 2.0 | 4.0 | 0.00 | 0.30 | 0.22 | 35 | 1023.4 |
| 20260507203717 | 61 | 135 | 0.0 | 2.0 | 0.00 | 0.30 | 0.22 | 35 | 1023.4 |
| 20260507202716 | 62 | 313 | 3.0 | 4.0 | 0.00 | 0.30 | 0.22 | 35 | 1023.5 |
| 20260507201814 | 61 | 337 | 0.0 | 0.0 | 0.00 | 0.30 | 0.22 | 35 | 1023.5 |
| 20260507200817 | 61 | 283 | 2.0 | 4.0 | 0.00 | 0.30 | 0.22 | 35 | 1023.5 |
| 20260507195815 | 61 | 305 | 1.0 | 4.0 | 0.00 | 0.30 | 0.22 | 35 | 1023.5 |
| 20260507193816 | 63 | 292 | 0.0 | 0.0 | 0.00 | 0.30 | 0.22 | 34 | 1023.7 |
| 20260507192816 | 63 | 337 | 0.0 | 3.0 | 0.00 | 0.30 | 0.22 | 34 | 1023.8 |
| 20260507191816 | 64 | 337 | 2.0 | 4.0 | 0.00 | 0.30 | 0.22 | 33 | 1023.7 |
| 20260507190915 | 62 | 292 | 0.0 | 2.0 | 0.00 | 0.30 | 0.22 | 35 | 1023.8 |
| 20260507190015 | 62 | 292 | 3.0 | 4.0 | 0.00 | 0.30 | 0.22 | 34 | 1024.0 |
| 20260507185016 | 62 | 324 | 2.0 | 6.0 | 0.00 | 0.30 | 0.22 | 35 | 1024.0 |
| 20260507184016 | 62 | 337 | 2.0 | 4.0 | 0.00 | 0.30 | 0.22 | 35 | 1024.4 |
| 20260507183016 | 62 | 337 | 3.0 | 5.0 | 0.00 | 0.30 | 0.22 | 36 | 1024.4 |
| 20260507182016 | 60 | 292 | 2.0 | 4.0 | 0.00 | 0.30 | 0.22 | 36 | 1024.5 |
| 20260507180114 | 61 | 280 | 1.0 | 4.0 | 0.00 | 0.30 | 0.22 | 34 | 1024.8 |
| 20260507175116 | 61 | 337 | 0.0 | 2.0 | 0.00 | 0.31 | 0.22 | 36 | 1024.9 |
| 20260507174115 | 60 | 333 | 2.0 | 5.0 | 0.00 | 0.31 | 0.22 | 37 | 1024.9 |
| 20260507173115 | 60 | 289 | 4.0 | 6.0 | 0.00 | 0.32 | 0.22 | 37 | 1025.1 |
| 20260507172115 | 60 | 33 | 2.0 | 5.0 | 0.00 | 0.33 | 0.22 | 38 | 1025.1 |
| 20260507171117 | 60 | 337 | 3.0 | 6.0 | 0.00 | 0.34 | 0.22 | 38 | 1025.3 |
| 20260507170116 | 59 | 220 | 1.0 | 3.0 | 0.00 | 0.34 | 0.22 | 41 | 1025.4 |
| 20260507165116 | 59 | 300 | 3.0 | 6.0 | 0.00 | 0.34 | 0.22 | 44 | 1025.6 |
| 20260507163115 | 59 | 336 | 1.0 | 3.0 | 0.00 | 0.34 | 0.22 | 50 | 1025.8 |
| 20260507161116 | 58 | 337 | 2.0 | 3.0 | 0.00 | 0.34 | 0.22 | 54 | 1026.2 |
| 20260507153216 | 56 | 292 | 2.0 | 2.0 | 0.00 | 0.34 | 0.22 | 63 | 1026.5 |
| 20260507152217 | 56 | 281 | 2.0 | 4.0 | 0.00 | 0.34 | 0.22 | 64 | 1026.6 |
| 20260507151216 | 55 | 302 | 1.0 | 3.0 | 0.00 | 0.34 | 0.22 | 66 | 1026.5 |
| 20260507144317 | 55 | 294 | 3.0 | 5.0 | 0.00 | 0.34 | 0.22 | 69 | 1026.8 |
| 20260507141415 | 53 | 337 | 1.0 | 4.0 | 0.00 | 0.34 | 0.22 | 74 | 1026.8 |
| 20260507140416 | 52 | 291 | 3.0 | 5.0 | 0.00 | 0.34 | 0.22 | 75 | 1026.8 |
| 20260507135414 | 52 | 329 | 1.0 | 4.0 | 0.00 | 0.34 | 0.22 | 76 | 1026.6 |
| 20260507134432 | 53 | 290 | 3.0 | 4.0 | 0.00 | 0.34 | 0.22 | 77 | 1026.7 |
| 20260507133515 | 52 | 321 | 3.0 | 5.0 | 0.00 | 0.34 | 0.22 | 80 | 1026.6 |
| 20260507132515 | 51 | 275 | 2.0 | 3.0 | 0.00 | 0.34 | 0.22 | 81 | 1026.8 |
| 20260507131517 | 51 | 306 | 4.0 | 6.0 | 0.00 | 0.34 | 0.22 | 82 | 1027.0 |
| 20260507130615 | 50 | 302 | 1.0 | 3.0 | 0.00 | 0.34 | 0.22 | 84 | 1026.8 |
| 20260507124616 | 50 | 321 | 3.0 | 4.0 | 0.00 | 0.34 | 0.22 | 86 | 1026.8 |
| 20260507123616 | 50 | 325 | 3.0 | 4.0 | 0.00 | 0.34 | 0.22 | 86 | 1026.5 |
| 20260507122714 | 51 | 297 | 1.0 | 3.0 | 0.00 | 0.34 | 0.22 | 88 | 1026.5 |
| 20260507121715 | 51 | 315 | 0.0 | 1.0 | 0.00 | 0.34 | 0.22 | 90 | 1026.6 |
| 20260507120814 | 51 | 337 | 0.0 | 4.0 | 0.00 | 0.34 | 0.22 | 91 | 1026.3 |
| 20260507115817 | 52 | 336 | 2.0 | 6.0 | 0.01 | 0.34 | 0.22 | 92 | 1026.3 |
| 20260507113818 | 53 | 15 | 0.0 | 2.0 | 0.01 | 0.34 | 0.22 | 93 | 1025.9 |
| 20260507112915 | 53 | 337 | 0.0 | 0.0 | 0.01 | 0.34 | 0.22 | 93 | 1026.0 |
| 20260507111915 | 52 | 180 | 0.0 | 0.0 | 0.02 | 0.34 | 0.22 | 93 | 1025.7 |
| 20260507110914 | 52 | 337 | 0.0 | 0.0 | 0.02 | 0.34 | 0.22 | 93 | 1025.6 |
| 20260507105915 | 52 | 337 | 0.0 | 1.0 | 0.01 | 0.33 | 0.21 | 93 | 1025.8 |
| 20260507104916 | 52 | 337 | 0.0 | 0.0 | 0.01 | 0.33 | 0.21 | 93 | 1025.7 |
| 20260507103916 | 52 | 315 | 0.0 | 0.0 | 0.01 | 0.33 | 0.21 | 93 | 1025.6 |
| 20260507102916 | 52 | 315 | 0.0 | 1.0 | 0.01 | 0.33 | 0.21 | 93 | 1025.5 |
| 20260507102015 | 52 | 315 | 0.0 | 0.0 | 0.00 | 0.32 | 0.20 | 92 | 1025.2 |
| 20260507101014 | 52 | 337 | 1.0 | 1.0 | 0.00 | 0.32 | 0.20 | 92 | 1025.2 |
| 20260507095016 | 52 | 337 | 2.0 | 5.0 | 0.00 | 0.32 | 0.20 | 92 | 1024.9 |
| 20260507094015 | 52 | 315 | 1.0 | 2.0 | 0.00 | 0.32 | 0.20 | 93 | 1025.2 |
| 20260507093016 | 52 | 298 | 1.0 | 3.0 | 0.00 | 0.32 | 0.20 | 93 | 1025.2 |
| 20260507092016 | 52 | 315 | 0.0 | 1.0 | 0.01 | 0.32 | 0.20 | 92 | 1025.4 |
| 20260507091017 | 52 | 315 | 1.0 | 1.0 | 0.01 | 0.32 | 0.20 | 92 | 1025.0 |
| 20260507090014 | 52 | 326 | 2.0 | 3.0 | 0.02 | 0.32 | 0.20 | 92 | 1024.5 |
| 20260507085017 | 52 | 337 | 2.0 | 4.0 | 0.02 | 0.32 | 0.20 | 92 | 1024.6 |
| 20260507084017 | 52 | 321 | 1.0 | 3.0 | 0.02 | 0.32 | 0.20 | 92 | 1024.5 |
| 20260507082016 | 52 | 299 | 0.0 | 3.0 | 0.02 | 0.31 | 0.19 | 92 | 1024.7 |
| 20260507081016 | 52 | 315 | 2.0 | 4.0 | 0.05 | 0.31 | 0.19 | 92 | 1024.8 |
| 20260507080017 | 52 | 331 | 2.0 | 5.0 | 0.09 | 0.30 | 0.18 | 92 | 1025.1 |
| 20260507075016 | 52 | 329 | 1.0 | 2.0 | 0.12 | 0.30 | 0.18 | 92 | 1024.6 |
| 20260507074017 | 52 | 324 | 2.0 | 6.0 | 0.14 | 0.30 | 0.18 | 92 | 1024.7 |
| 20260507073114 | 52 | 318 | 3.0 | 7.0 | 0.14 | 0.28 | 0.17 | 92 | 1024.5 |
| 20260507072116 | 52 | 331 | 2.0 | 3.0 | 0.17 | 0.28 | 0.17 | 91 | 1024.5 |
| 20260507071114 | 51 | 321 | 2.0 | 3.0 | 0.14 | 0.26 | 0.14 | 90 | 1024.6 |
| 20260507070117 | 51 | 297 | 4.0 | 7.0 | 0.09 | 0.21 | 0.09 | 89 | 1024.4 |
| 20260507065117 | 52 | 318 | 1.0 | 4.0 | 0.06 | 0.18 | 0.06 | 89 | 1024.3 |
| 20260507064214 | 52 | 302 | 4.0 | 9.0 | 0.05 | 0.17 | 0.05 | 88 | 1023.6 |